Weather History for KASL - December, 2012

Change the Weather History Date:

Wednesday, December 19, 2012

  Actual Average (KGGG) Record (KGGG)
Temperature  
Mean Temperature 63 °F 47 °F  
Max Temperature 75 °F 58 °F 78 °F (1957)
Min Temperature 51 °F 37 °F 15 °F (1929)
Degree Days  
Heating Degree Days 2 18  
Month to date heating degree days 313  
Since 1 July heating degree days 685  
Cooling Degree Days 0 0  
Month to date cooling degree days 0  
Year to date cooling degree days 2417  
Growing Degree Days 13 (Base 50)    
Moisture  
Dew Point 59 °F    
Average Humidity 80    
Maximum Humidity 94    
Minimum Humidity 65    
Precipitation  
Precipitation 0.00 in 0.14 in 0.71 in (1918)
Month to date precipitation 2.93  
Year to date precipitation 45.99  
Snow  
Snow 0.00 in - - ()
Month to date snowfall  
Since 1 July snowfall  
Snow Depth -    
Sea Level Pressure  
Sea Level Pressure 29.78 in    
Wind  
Wind Speed 8 mph (SSE)    
Max Wind Speed 21 mph    
Max Gust Speed 29 mph    
Visibility 10 miles    
Events      
T = Trace of Precipitation, MM = Missing Value Source: NWS Daily Summary

Daily Weather History Graph

Daily Weather History Graph

Search for Another Location

Airport or City:

Trip Planner

Search our weather history database for the weather conditions in past years. The results will help you decide how hot, cold, wet, or windy it might be!

Date:

Astronomy

Dec. 19, 2012 Rise Set
Actual Time 7:14 AM CST 5:15 PM CST
Civil Twilight 6:47 AM CST 5:42 PM CST
Nautical Twilight 6:16 AM CST 6:13 PM CST
Astronomical Twilight 5:46 AM CST 6:43 PM CST
Moon 11:45 AM CST (12/19) No Moon Set
Length of Visible Light 10h 55m
Length of Day
10h 00m
Waxing Crescent, 45% of the Moon is Illuminated
Dec 19
Waxing Crescent
Dec 19
First Quarter
Dec 28
Full
Jan 4
Last Quarter
Jan 11
New

Hourly Weather History & Observations

Time (CST) Temp. Dew Point Humidity Pressure Visibility Wind Dir Wind Speed Gust Speed Precip Events Conditions
12:15 AM 55.4 °F 50.0 °F 82% 29.88 in 10.0 mi SE 4.6 mph - N/A   Clear
12:35 AM 55.4 °F 50.0 °F 82% 29.88 in 10.0 mi SSE 4.6 mph - N/A   Clear
12:55 AM 55.4 °F 51.8 °F 88% 29.88 in 10.0 mi SE 4.6 mph - N/A   Clear
1:15 AM 51.8 °F 48.2 °F 88% 29.87 in 10.0 mi SE 3.5 mph - N/A   Clear
1:35 AM 55.4 °F 51.8 °F 88% 29.87 in 10.0 mi SE 3.5 mph - N/A   Clear
1:55 AM 55.4 °F 51.8 °F 88% 29.87 in 10.0 mi SSE 3.5 mph - N/A   Clear
2:15 AM 51.8 °F 50.0 °F 94% 29.87 in 10.0 mi SSE 3.5 mph - N/A   Clear
2:35 AM 51.8 °F 50.0 °F 94% 29.86 in 10.0 mi SSE 5.8 mph - N/A   Clear
2:55 AM 51.8 °F 50.0 °F 94% 29.86 in 10.0 mi Calm Calm - N/A   Clear
3:15 AM 51.8 °F 50.0 °F 94% 29.86 in 10.0 mi SSE 4.6 mph - N/A   Clear
3:35 AM 51.8 °F 50.0 °F 94% 29.85 in 10.0 mi SSE 3.5 mph - N/A   Clear
3:55 AM 51.8 °F 50.0 °F 94% 29.86 in 10.0 mi Calm Calm - N/A   Clear
4:15 AM 51.8 °F 50.0 °F 94% 29.85 in 10.0 mi SE 4.6 mph - N/A   Clear
4:35 AM 51.8 °F 50.0 °F 94% 29.85 in 10.0 mi SE 3.5 mph - N/A   Clear
4:55 AM 51.8 °F 50.0 °F 94% 29.85 in 10.0 mi SE 4.6 mph - N/A   Scattered Clouds
5:15 AM 53.6 °F 51.8 °F 94% 29.85 in 10.0 mi SSE 3.5 mph - N/A   Mostly Cloudy
5:35 AM 55.4 °F 53.6 °F 94% 29.85 in 10.0 mi SE 3.5 mph - N/A   Overcast
6:15 AM 55.4 °F 53.6 °F 94% 29.87 in 10.0 mi SE 3.5 mph - N/A   Overcast
6:35 AM 55.4 °F 53.6 °F 94% 29.88 in 10.0 mi SE 4.6 mph - N/A   Overcast
6:55 AM 57.2 °F 53.6 °F 88% 29.88 in 10.0 mi SSE 4.6 mph - N/A   Overcast
7:15 AM 57.2 °F 53.6 °F 88% 29.87 in 10.0 mi SE 4.6 mph - N/A   Overcast
7:35 AM 57.2 °F 53.6 °F 88% 29.87 in 10.0 mi ESE 4.6 mph - N/A   Mostly Cloudy
7:55 AM 57.2 °F 53.6 °F 88% 29.86 in 10.0 mi SE 6.9 mph - N/A   Mostly Cloudy
8:15 AM 60.8 °F 57.2 °F 88% 29.85 in 10.0 mi SE 6.9 mph - N/A   Mostly Cloudy
8:35 AM 62.6 °F 59.0 °F 88% 29.85 in 10.0 mi SSE 10.4 mph - N/A   Overcast
8:55 AM 64.4 °F 60.8 °F 88% 29.86 in 10.0 mi SSE 9.2 mph - N/A   Overcast
9:15 AM 64.4 °F 60.8 °F 88% 29.86 in 10.0 mi SSE 11.5 mph 16.1 mph N/A   Overcast
9:35 AM 64.4 °F 60.8 °F 88% 29.86 in 10.0 mi SSE 12.7 mph - N/A   Overcast
9:55 AM 64.4 °F 60.8 °F 88% 29.85 in 10.0 mi SSE 13.8 mph - N/A   Overcast
10:15 AM 66.2 °F 60.8 °F 83% 29.85 in 10.0 mi South 12.7 mph - N/A   Overcast
10:35 AM 68.0 °F 62.6 °F 83% 29.85 in 10.0 mi South 15.0 mph 21.9 mph N/A   Overcast
10:55 AM 69.8 °F 62.6 °F 78% 29.84 in 10.0 mi SSE 16.1 mph 23.0 mph N/A   Overcast
11:15 AM 69.8 °F 62.6 °F 78% 29.83 in 10.0 mi South 12.7 mph 21.9 mph N/A   Overcast
11:35 AM 69.8 °F 60.8 °F 73% 29.81 in 10.0 mi South 13.8 mph 26.5 mph N/A   Mostly Cloudy
11:55 AM 71.6 °F 62.6 °F 73% 29.79 in 10.0 mi South 20.7 mph 27.6 mph N/A   Mostly Cloudy
12:15 PM 71.6 °F 62.6 °F 73% 29.79 in 10.0 mi South 17.3 mph 28.8 mph N/A   Overcast
12:35 PM 71.6 °F 62.6 °F 73% 29.78 in 10.0 mi SSE 16.1 mph 26.5 mph N/A   Overcast
12:55 PM 71.6 °F 62.6 °F 73% 29.77 in 10.0 mi South 16.1 mph 28.8 mph N/A   Overcast
1:15 PM 71.6 °F 60.8 °F 69% 29.76 in 10.0 mi South 18.4 mph 26.5 mph N/A   Overcast
1:35 PM 71.6 °F 60.8 °F 69% 29.75 in 10.0 mi South 16.1 mph 27.6 mph N/A   Overcast
1:55 PM 71.6 °F 60.8 °F 69% 29.74 in 10.0 mi SSE 13.8 mph 24.2 mph N/A   Mostly Cloudy
2:15 PM 73.4 °F 60.8 °F 65% 29.73 in 10.0 mi SSE 15.0 mph 21.9 mph N/A   Scattered Clouds
2:35 PM 73.4 °F 60.8 °F 65% 29.72 in 10.0 mi SSE 15.0 mph 23.0 mph N/A   Scattered Clouds
2:55 PM 75.2 °F 62.6 °F 65% 29.71 in 10.0 mi SSE 12.7 mph - N/A   Scattered Clouds
3:15 PM 75.2 °F 62.6 °F 65% 29.70 in 10.0 mi SSE 16.1 mph 19.6 mph N/A   Scattered Clouds
3:35 PM 75.2 °F 62.6 °F 65% 29.70 in 10.0 mi SSE 15.0 mph 18.4 mph N/A   Clear
3:55 PM 73.4 °F 62.6 °F 69% 29.70 in 10.0 mi SSE 15.0 mph 21.9 mph N/A   Clear
4:15 PM 71.6 °F 60.8 °F 69% 29.69 in 10.0 mi SE 12.7 mph 17.3 mph N/A   Clear
4:35 PM 71.6 °F 62.6 °F 73% 29.70 in 10.0 mi SSE 10.4 mph - N/A   Clear
4:55 PM 71.6 °F 62.6 °F 73% 29.68 in 10.0 mi SE 9.2 mph 17.3 mph N/A   Clear
5:15 PM 71.6 °F 60.8 °F 69% 29.68 in 10.0 mi SE 11.5 mph 19.6 mph N/A   Clear
5:35 PM 71.6 °F 62.6 °F 73% 29.68 in 10.0 mi SSE 9.2 mph - N/A   Clear
5:55 PM 71.6 °F 62.6 °F 73% 29.67 in 10.0 mi SE 10.4 mph 17.3 mph N/A   Clear
6:15 PM 71.6 °F 62.6 °F 73% 29.67 in 10.0 mi SSE 13.8 mph 23.0 mph N/A   Clear
6:35 PM 71.6 °F 62.6 °F 73% 29.68 in 10.0 mi SSE 12.7 mph 19.6 mph N/A   Clear
6:55 PM 71.6 °F 62.6 °F 73% 29.69 in 10.0 mi South 11.5 mph 19.6 mph N/A   Clear
7:15 PM 71.6 °F 62.6 °F 73% 29.68 in 10.0 mi SSE 16.1 mph 21.9 mph N/A   Clear
7:35 PM 71.6 °F 62.6 °F 73% 29.68 in 10.0 mi SSE 15.0 mph 23.0 mph N/A   Scattered Clouds
7:55 PM 71.6 °F 62.6 °F 73% 29.68 in 10.0 mi SSE 13.8 mph 21.9 mph N/A   Scattered Clouds
8:15 PM 71.6 °F 62.6 °F 73% 29.69 in 10.0 mi South 13.8 mph 20.7 mph N/A   Mostly Cloudy
8:35 PM 71.6 °F 62.6 °F 73% 29.69 in 10.0 mi South 10.4 mph 23.0 mph N/A   Overcast
8:55 PM 71.6 °F 62.6 °F 73% 29.70 in 10.0 mi South 15.0 mph 20.7 mph N/A   Overcast
9:15 PM 71.6 °F 64.4 °F 78% 29.69 in 10.0 mi South 11.5 mph 20.7 mph N/A   Overcast
9:35 PM 71.6 °F 64.4 °F 78% 29.68 in 10.0 mi South 13.8 mph 21.9 mph N/A   Overcast
9:55 PM 71.6 °F 64.4 °F 78% 29.68 in 10.0 mi South 12.7 mph 19.6 mph N/A   Mostly Cloudy
10:15 PM 71.6 °F 64.4 °F 78% 29.66 in 10.0 mi South 11.5 mph 19.6 mph N/A   Mostly Cloudy
10:35 PM 71.6 °F 64.4 °F 78% 29.66 in 10.0 mi South 13.8 mph 20.7 mph N/A   Overcast
10:55 PM 71.6 °F 64.4 °F 78% 29.66 in 10.0 mi South 16.1 mph 25.3 mph N/A   Overcast
11:15 PM 71.6 °F 62.6 °F 73% 29.66 in 10.0 mi South 18.4 mph 26.5 mph N/A   Overcast
11:35 PM 71.6 °F 62.6 °F 73% 29.67 in 10.0 mi South 15.0 mph 26.5 mph N/A   Overcast
11:55 PM 71.6 °F 64.4 °F 78% 29.67 in 10.0 mi South 15.0 mph 24.2 mph N/A   Overcast